Tyler, TX

2:36 AM CST on February 25, 2018 (GMT -0600)
Tyler Pounds

Weather History for KTYR - January, 2012

Change the Weather History Date:

Saturday, January 14, 2012

  Actual Average Record
Temperature  
Mean Temperature 50 °F 46 °F  
Max Temperature 64 °F 56 °F 79 °F (1928)
Min Temperature 35 °F 37 °F 1 °F (1982)
Degree Days  
Heating Degree Days 15 19  
Month to date heating degree days 223 266  
Since 1 July heating degree days 1043 1167  
Cooling Degree Days 0 0  
Month to date cooling degree days 0 0  
Year to date cooling degree days 0 0  
Moisture  
Dew Point 26 °F    
Average Humidity 44    
Maximum Humidity 65    
Minimum Humidity 23    
Precipitation  
Precipitation 0.00 in 0.09 in 4.08 in (1949)
Month to date precipitation 1.36 1.42  
Year to date precipitation 1.36 1.42  
Snow  
Snow 0.00 in - - ()
Month to date snowfall 0.0  
Since 1 July snowfall 0.0  
Snow Depth 0.00 in    
Sea Level Pressure  
Sea Level Pressure 30.30 in    
Wind  
Wind Speed 8 mph (SW)    
Max Wind Speed 14 mph    
Max Gust Speed 18 mph    
Visibility 10 miles    
Events      
T = Trace of Precipitation, MM = Missing Value Source: NWS Daily Summary

Daily Weather History Graph

Daily Weather History Graph

Search for Another Location

Airport or City:

Trip Planner

Search our weather history database for the weather conditions in past years. The results will help you decide how hot, cold, wet, or windy it might be!

Date:

Astronomy

Jan. 14, 2012 Rise Set
Actual Time 7:23 AM CST 5:37 PM CST
Civil Twilight 6:56 AM CST 6:04 PM CST
Nautical Twilight 6:26 AM CST 6:34 PM CST
Astronomical Twilight 5:57 AM CST 7:04 PM CST
Moon 11:34 PM CST (1/14) 10:32 AM CST (1/14)
Length of Visible Light 11h 07m
Length of Day
10h 14m
Waning Gibbous, 68% of the Moon is Illuminated
Jan 14
Waning Gibbous
Jan 16
Last Quarter
Jan 23
New
Jan 30
First Quarter
Feb 7
Full

Hourly Weather History & Observations

Time (CST) Temp. Windchill Dew Point Humidity Pressure Visibility Wind Dir Wind Speed Gust Speed Precip Events Conditions
12:53 AM 39.0 °F 32.8 °F 25.0 °F 57% 30.28 in 10.0 mi South 9.2 mph - N/A   Clear
1:53 AM 37.0 °F 31.0 °F 25.0 °F 62% 30.28 in 10.0 mi South 8.1 mph - N/A   Clear
2:53 AM 37.0 °F 31.6 °F 25.0 °F 62% 30.28 in 10.0 mi SSW 6.9 mph - N/A   Clear
3:53 AM 35.1 °F 31.0 °F 25.0 °F 67% 30.27 in 10.0 mi South 4.6 mph - N/A   Clear
4:53 AM 37.9 °F 31.5 °F 25.0 °F 60% 30.26 in 10.0 mi SSW 9.2 mph - N/A   Clear
5:53 AM 42.1 °F 35.7 °F 21.9 °F 45% 30.29 in 10.0 mi SW 11.5 mph - N/A   Clear
6:53 AM 39.9 °F 33.4 °F 23.0 °F 51% 30.30 in 10.0 mi SW 10.4 mph - N/A   Clear
7:53 AM 39.9 °F 32.9 °F 23.0 °F 51% 30.30 in 10.0 mi SW 11.5 mph - N/A   Clear
8:53 AM 43.0 °F 37.2 °F 24.1 °F 47% 30.32 in 10.0 mi SW 10.4 mph - N/A   Clear
9:53 AM 46.9 °F - 25.0 °F 42% 30.35 in 10.0 mi WSW 9.2 mph - N/A   Clear
10:53 AM 52.0 °F - 26.1 °F 37% 30.35 in 10.0 mi WSW 10.4 mph - N/A   Clear
11:53 AM 55.9 °F - 28.0 °F 34% 30.33 in 10.0 mi SW 8.1 mph 16.1 mph N/A   Clear
12:53 PM 59.0 °F - 28.0 °F 31% 30.31 in 10.0 mi West 6.9 mph - N/A   Clear
1:53 PM 62.1 °F - 30.0 °F 30% 30.29 in 10.0 mi WSW 9.2 mph - N/A   Clear
2:53 PM 63.0 °F - 27.0 °F 26% 30.28 in 10.0 mi West 4.6 mph - N/A   Clear
3:53 PM 64.4 °F - 26.6 °F 24% 30.28 in 10.0 mi SSW 9.2 mph - N/A   Clear
4:53 PM 63.0 °F - 24.1 °F 23% 30.28 in 10.0 mi SW 5.8 mph - N/A   Clear
5:53 PM 57.0 °F - 24.1 °F 28% 30.28 in 10.0 mi SW 3.5 mph - N/A   Clear
6:53 PM 55.0 °F - 26.1 °F 33% 30.30 in 10.0 mi SW 5.8 mph - N/A   Clear
7:53 PM 52.0 °F - 25.0 °F 35% 30.32 in 10.0 mi SW 3.5 mph - N/A   Clear
8:53 PM 41.0 °F 36.4 °F 30.9 °F 67% 30.32 in 10.0 mi South 6.9 mph - N/A   Clear
9:53 PM 43.0 °F 38.8 °F 28.9 °F 58% 30.33 in 10.0 mi South 6.9 mph - N/A   Clear
10:53 PM 43.0 °F 38.8 °F 28.9 °F 58% 30.33 in 10.0 mi South 6.9 mph - N/A   Clear
11:53 PM 42.1 °F - 30.0 °F 62% 30.32 in 10.0 mi North - - N/A   Clear